Location: Newark
(45.4422°N, 16.2769°E)
Time: 06:38:34
(UTC+00:00)

Courier 1B - Pass Details

Date: 12 December 2019
Orbit: 962 x 1209 km, 28.3° (Epoch: 20 January)

Event Time Altitude Azimuth Distance (km) Brightness Sun altitude
Rises 23:51:04 0° 250° (WSW) 4,045 - -64.3°
Reaches altitude 10° 23:55:54 10° 224° (SW) 3,116 - -63.8°
Maximum altitude 23:58:57 13° 201° (SSW) 2,926 - -63.5°
Drops below altitude 10° 00:02:01 10° 177° (S) 3,136 - -63.2°
Sets 00:06:56 0° 151° (SSE) 4,097 - -62.6°
